Volver al catálogo

AMOS 5

ActivoComunicacionesGEO
NORAD 37950·PAYLOAD·🇮🇱 Israel

Lanzado Dec 11, 2011 desde Baikonur Cosmodrome

Loading…

TLE

ActualizadoSource: Space-Track

Época: Sep 14, 2026, 14:00 UTC

1 37950U 11074A   26257.58402772  .00000128  00000-0  00000-0 0  9995
2 37950   9.0293  59.7384 0002406  85.7355 103.4071  1.00186904 53890

Sigue AMOS 5 en tiempo real con AllMySat

Download on the App Store